FW5697 Weather Reports


Display with metric or nautical units.
time (UTC)temp
F
wind
direction
speed
MPH
gust
MPH
rain 1hr
in
rain 24hr
in
rain mn
in
humidity
%
barometer
mb
20240521164515 81 88 2.0 5.0 0.00 0.00 0.00 57 1016.8
20240521163020 80 0 0.0 5.0 0.00 0.00 0.00 60 1017.0
20240521161514 80 0 0.0 4.0 0.00 0.00 0.00 62 1017.2
20240521160015 80 94 1.0 4.0 0.00 0.00 0.00 60 1017.2
20240521154524 80 140 1.0 3.0 0.00 0.00 0.00 62 1017.1
20240521153015 79 0 0.0 3.0 0.00 0.00 0.00 62 1017.2
20240521151518 78 0 1.0 3.0 0.00 0.00 0.00 65 1017.2
20240521150015 77 137 1.0 4.0 0.00 0.00 0.00 67 1017.2
20240521144516 76 0 0.0 3.0 0.00 0.00 0.00 72 1017.1
20240521143013 74 0 0.0 3.0 0.00 0.00 0.00 76 1017.1
20240521141520 73 0 0.0 2.0 0.00 0.00 0.00 78 1017.1
20240521140015 72 49 0.0 3.0 0.00 0.00 0.00 82 1017.0
20240521134516 71 0 0.0 2.0 0.00 0.00 0.00 83 1017.0
20240521133017 69 0 0.0 3.0 0.00 0.00 0.00 85 1016.9
20240521131514 68 25 1.0 3.0 0.00 0.00 0.00 86 1016.8
20240521130012 67 0 0.0 3.0 0.00 0.00 0.00 88 1016.7
20240521124527 66 29 0.0 2.0 0.00 0.00 0.00 89 1016.9
20240521123018 65 0 0.0 2.0 0.00 0.00 0.00 90 1017.0
20240521121518 65 0 0.0 2.0 0.00 0.00 0.00 91 1017.0
20240521120017 64 29 1.0 3.0 0.00 0.00 0.00 92 1017.1
20240521114513 63 13 0.0 2.0 0.00 0.00 0.00 94 1017.0
20240521113026 62 0 0.0 1.0 0.00 0.00 0.00 94 1016.7
20240521111516 61 0 0.0 0.0 0.00 0.00 0.00 93 1016.7
20240521110017 61 0 0.0 0.0 0.00 0.00 0.00 93 1016.2
20240521104515 61 0 0.0 0.0 0.00 0.00 0.00 92 1016.0
20240521103013 61 0 0.0 0.0 0.00 0.00 0.00 92 1015.7
20240521101513 61 0 0.0 0.0 0.00 0.00 0.00 92 1015.7
20240521100021 62 0 0.0 0.0 0.00 0.00 0.00 92 1015.4
20240521094513 62 0 0.0 0.0 0.00 0.00 0.00 92 1015.4
20240521093016 62 0 0.0 1.0 0.00 0.00 0.00 92 1015.2
20240521091518 62 0 0.0 0.0 0.00 0.00 0.00 91 1015.1
20240521090015 62 0 0.0 0.0 0.00 0.00 0.00 91 1015.1
20240521084513 63 0 0.0 0.0 0.00 0.00 0.00 92 1015.1
20240521083015 63 0 0.0 0.0 0.00 0.00 0.00 91 1015.3
20240521081514 63 0 0.0 0.0 0.00 0.00 0.00 92 1015.1
20240521080025 63 0 0.0 0.0 0.00 0.00 0.00 91 1015.1
20240521074515 63 0 0.0 0.0 0.00 0.00 0.00 91 1015.0
20240521073017 63 0 0.0 0.0 0.00 0.00 0.00 92 1015.0
20240521071520 63 0 0.0 0.0 0.00 0.00 0.00 92 1015.2
20240521070016 63 0 0.0 0.0 0.00 0.00 0.00 92 1015.1
20240521064515 63 0 0.0 0.0 0.00 0.00 0.00 91 1015.1
20240521063013 63 0 0.0 0.0 0.00 0.00 0.00 91 1015.2
20240521061513 63 0 0.0 0.0 0.00 0.00 0.00 91 1015.2
20240521060014 63 0 0.0 0.0 0.00 0.00 0.00 90 1015.2
20240521054528 63 0 0.0 1.0 0.00 0.00 0.00 90 1015.2
20240521053029 64 0 0.0 0.0 0.00 0.00 0.00 90 1015.3
20240521051514 64 0 0.0 0.0 0.00 0.00 0.00 89 1015.3
20240521050013 64 0 0.0 0.0 0.00 0.00 0.00 90 1015.2
20240521044514 64 0 0.0 0.0 0.00 0.00 0.00 89 1015.3
20240521043016 65 0 0.0 0.0 0.00 0.00 0.00 89 1015.3
20240521041519 65 0 0.0 0.0 0.00 0.00 0.00 89 1015.4
20240521040020 66 0 0.0 0.0 0.00 0.00 0.00 89 1015.5
20240521034513 66 0 0.0 0.0 0.00 0.00 0.00 88 1015.6
20240521033013 66 0 0.0 0.0 0.00 0.00 0.00 87 1015.7
20240521031515 67 0 0.0 0.0 0.00 0.00 0.00 87 1015.9
20240521030013 67 0 0.0 0.0 0.00 0.00 0.00 86 1015.9
20240521024521 68 0 0.0 0.0 0.00 0.00 0.00 86 1015.7
20240521023015 68 0 0.0 0.0 0.00 0.00 0.00 85 1015.6
20240521021513 69 0 0.0 0.0 0.00 0.00 0.00 85 1015.3
20240521020017 69 0 0.0 0.0 0.00 0.00 0.00 82 1015.1
20240521014514 70 0 0.0 0.0 0.00 0.00 0.00 81 1015.0
20240521013024 72 0 0.0 0.0 0.00 0.00 0.00 79 1014.8
20240521011538 72 0 0.0 0.0 0.00 0.00 0.00 77 1014.7
20240521010013 73 0 0.0 0.0 0.00 0.00 0.00 76 1014.6
20240521004515 74 0 0.0 0.0 0.00 0.00 0.00 74 1014.4
20240521003015 76 0 0.0 0.0 0.00 0.00 0.00 72 1014.2
20240521001516 77 0 0.0 0.0 0.00 0.00 0.00 68 1014.2
20240521000014 79 0 0.0 0.0 0.00 0.00 0.00 65 1014.3
20240520234516 80 0 0.0 0.0 0.00 0.00 0.00 61 1014.3
20240520233016 81 0 0.0 0.0 0.00 0.00 0.00 60 1014.3
20240520231518 83 13 0.0 1.0 0.00 0.00 0.00 55 1014.1
20240520230015 83 0 0.0 2.0 0.00 0.00 0.00 53 1014.2
20240520224514 83 0 0.0 2.0 0.00 0.00 0.00 53 1014.2
20240520223014 83 11 0.0 3.0 0.00 0.00 0.00 54 1014.1
20240520221515 83 57 0.0 1.0 0.00 0.00 0.00 53 1014.2
20240520220013 83 0 0.0 2.0 0.00 0.00 0.00 53 1014.3
20240520214515 84 0 1.0 4.0 0.00 0.00 0.00 52 1014.3
20240520213016 84 94 0.0 2.0 0.00 0.00 0.00 55 1014.3
20240520211514 84 0 0.0 3.0 0.00 0.00 0.00 52 1014.4
20240520210013 83 0 0.0 3.0 0.00 0.00 0.00 53 1014.6
20240520204517 83 32 1.0 4.0 0.00 0.00 0.00 53 1014.8
20240520203014 84 0 1.0 3.0 0.00 0.00 0.00 55 1015.1
20240520201530 83 239 0.0 2.0 0.00 0.00 0.00 54 1015.1
20240520200025 83 90 0.0 3.0 0.00 0.00 0.00 54 1015.2
20240520194513 82 153 1.0 5.0 0.00 0.00 0.00 54 1015.3
20240520193013 82 0 0.0 2.0 0.00 0.00 0.00 55 1015.5
20240520191517 82 160 1.0 3.0 0.00 0.00 0.00 56 1015.7
20240520190034 81 28 1.0 5.0 0.00 0.00 0.00 57 1015.8
20240520184524 81 0 0.0 3.0 0.00 0.00 0.00 58 1015.8
20240520183013 80 147 1.0 5.0 0.00 0.00 0.00 57 1015.9
20240520181529 80 31 2.0 4.0 0.00 0.00 0.00 57 1016.0
20240520180027 79 360 2.0 7.0 0.00 0.00 0.00 60 1016.3
20240520174530 79 55 3.0 6.0 0.00 0.00 0.00 60 1016.3
20240520173024 79 0 1.0 5.0 0.00 0.00 0.00 64 1016.3
20240520171517 78 71 0.0 7.0 0.00 0.00 0.00 64 1016.5
20240520170018 78 74 2.0 4.0 0.00 0.00 0.00 62 1016.7